Regional Weather Roundup
Issued by NWS Columbia, SC

Home | Current Version | Previous Version | Text Only | Print | Product List | Glossary On
Versions: 1 2 3 4 5 6 7 8 9 10 11 12 13 14 15 16 17 18 19 20 21 22 23 24 25 26 27 28 29 30 31 32 33 34 35 36 37 38 39 40 41 42 43 44 45 46 47 48 49 50
000
ASUS42 KCAE 200110
RWRCAE
REGIONAL WEATHER ROUNDUP
NATIONAL WEATHER SERVICE COLUMBIA SC
800 PM EST FRI DEC 19 2014

NOTE: "FAIR" INDICATES FEW OR NO CLOUDS BELOW 12,000 FEET WITH NO
SIGNIFICANT WEATHER AND/OR OBSTRUCTIONS TO VISIBILITY.

NOT ALL STATIONS ARE QUALITY CONTROLLED BY THE NATIONAL
WEATHER SERVICE. USE DATA WITH CAUTION...ESPECIALLY
DEWPOINT OBSERVATIONS.

SCZ001>056-GAZ040-063>065-077-200200-
...UPSTATE SOUTH CAROLINA...

CITY           SKY/WX    TMP DP  RH WIND       PRES   REMARKS
ANDERSON       CLOUDY    46  38  73 NE3       30.13S
LIBERTY        FAIR      44  31  61 MISG      30.13S
SPARTANBURG    FAIR      46  36  66 CALM      30.15R
CLEMSON        CLOUDY    50  36  58 CALM      30.13F
GREENVILLE     MOCLDY    50  32  50 CALM      30.14R
GREENWOOD      CLOUDY    46  39  76 N3        30.15R
GREER          CLOUDY    47  34  60 CALM      30.13R
ROCK HILL      MOCLDY    43  34  70 CALM      30.16R
CHESTER        FAIR      50  32  50 CALM      30.16R
LAURENS        FAIR      45  41  87 CALM      30.15R


...CENTRAL SOUTH CAROLINA...

CITY           SKY/WX    TMP DP  RH WIND       PRES   REMARKS
COLUMBIA APT   MOCLDY    54  39  57 CALM      30.13S
COLUMBIA OWENS MOCLDY    51  39  63 CALM      30.15R
DARLINGTON     PTCLDY    43  34  70 CALM      30.17S
FLORENCE       PTCLDY    46  35  65 NE6       30.16R
MCENTIRE ANGB  PTCLDY    49  37  61 E5        30.14S
ORANGEBURG     CLOUDY    51  41  68 E3        30.13R
SUMTER SHAW    MOCLDY    44  36  73 NE6       30.12S
NEWBERRY       FAIR      46  37  71 NE5       30.17R
AIKEN          FAIR      48  43  81 CALM      30.15R
BARNWELL       FAIR      50  45  81 CALM      30.13R
CAMDEN         FAIR      46  34  61 E6        30.15F
LANCASTER      FAIR      45  36  70 NE3       30.15S
WINNSBORO      FAIR      50  34  53 NE5       30.14R


...EASTERN AND COASTAL SOUTH CAROLINA...

CITY           SKY/WX    TMP DP  RH WIND       PRES   REMARKS
MYRTLE BEACH   CLEAR     46  39  76 VRB6      30.16F
N MYRTLE BCH   PTCLDY    43  39  86 NE3       30.16R
CONWAY         FAIR      43  41  93 CALM      30.16S
MARION         FAIR      43  36  75 CALM      30.16S
HARTSVILLE     FAIR      46  30  53 NE3       30.15F
FLORENCE       PTCLDY    46  35  65 NE6       30.16R
DARLINGTON     PTCLDY    43  34  70 CALM      30.17S
CHARLESTON APT MOCLDY    51  43  74 NE6       30.12F
MOUNT PLEASANT FAIR      50  46  87 CALM      30.13S
WALTERBORO     MOCLDY    52  46  82 E3        30.13S
BEAUFORT       PTCLDY    54  50  86 E5        30.12S


...EASTERN GEORGIA...

CITY           SKY/WX    TMP DP  RH WIND       PRES   REMARKS
AUGUSTA BUSH F MOCLDY    49  41  74 CALM      30.12R
AUGUSTA DANIEL MOCLDY    56  41  57 CALM      30.13R
THOMSON        CLOUDY    50  46  87 CALM      30.17R
WASHINGTON     FAIR      54  46  76 CALM      30.13R
CLAXTON        FAIR      46  45  93 CALM      30.12R
SYLVANIA       PTCLDY    48  46  95 CALM      30.13R
STATESBORO     MOCLDY    46  46 100 CALM      30.12R
SAVANNAH       MOCLDY    51  43  74 E5        30.12R


...SOUTHERN NORTH CAROLINA...

CITY           SKY/WX    TMP DP  RH WIND       PRES   REMARKS
CHARLOTTE      CLOUDY    49  29  46 NE3       30.16R
MONROE         MOCLDY    45  32  60 CALM      30.14S
WADESBORO      MOCLDY    41  37  86 CALM      30.16S
ROCKINGHAM     MOCLDY    45  33  65 CALM      30.16S
RUTHERFORDTON  CLOUDY    45  33  62 CALM      30.16R
ASHEVILLE      CLOUDY    42  26  53 N14       30.15R

$$



USA.gov is the U.S. government's official web portal to all federal, state and local government web resources and services.